Terminal Aerodrome Forecast
Issued by NWS

Home | Current Version | Previous Version | Text Only | Print | Product List | Glossary On
Versions: 1 2 3 4 5 6 7 8 9 10 11 12 13 14 15 16 17 18 19 20 21
607
FTUS46 KMFR 191145
TAFLMT
TAF
KLMT 191145Z 1912/2012 16013KT P6SM SCT025 BKN070
      TEMPO 1912/1916 4SM -SHRASN BKN020
     FM191600 20016G26KT P6SM -SHRA BKN020 BKN040
     FM200000 19015G23KT P6SM -RA SCT025 BKN035 OVC050
     FM200600 17015KT P6SM -RA OVC050=

USA.gov is the U.S. government's official web portal to all federal, state and local government web resources and services.